Terminal Aerodrome Forecast
Issued by NWS

Home | Current Version | Previous Version | Text Only | Print | Product List | Glossary On
Versions: 1 2 3 4 5 6 7 8 9 10 11 12 13 14 15 16 17 18 19 20 21 22 23 24 25 26 27 28 29 30 31 32 33 34 35 36 37 38 39 40 41 42 43 44 45 46 47 48 49 50
000
FTUS44 KLIX 180900 AAA
TAFASD
TAF AMD
KASD 180935Z 1810/1906 00000KT 3SM BR BKN003
      TEMPO 1810/1813 1SM BR VV001
     FM181500 VRB04KT P6SM VCSH BKN025
     FM181800 VRB05KT P6SM VCSH BKN035 PROB30 1819/1901 3SM -TSRA
      BKN028CB
     FM190200 VRB03KT P6SM SCT040 BKN090=

USA.gov is the U.S. government's official web portal to all federal, state and local government web resources and services.